Home > Weather > Pécs > Past weeks

Flag for Hungary Past Weather in Pécs, Hungary — Yesterday and Last 2 Weeks

Now
72 °F

Passing clouds.


Feels Like: 77 °F
Forecast: 57 / 72 °F
Wind: 8 mph from Southwest

Location: Pecs / Pogany

Current Time: May 31, 2016 at 12:08:01 PM

Latest Report: May 31, 2016 at 11:00 AM


Visibility: 47 mi

Pressure: 29.89 "Hg

Humidity: 45%

Dew Point: 49 °F

Location of PécsLocation

Past Weather in Pécs — Graph

°F

Pécs Temperature Yesterday

Maximum temperature yesterday: 79 °F (at 4:00 PM)
Minimum temperature yesterday: 63 °F (at 6:00 AM)
Average temperature yesterday: 69 °F

High & Low Weather Summary for the Past Weeks

 TemperatureHumidityPressure
High85 °F (May 29, 5:00 PM)94% (May 24, 8:00 AM)30.12 "Hg (May 24, 8:00 AM)
Low43 °F (May 17, 5:00 AM)31% (May 19, 1:00 PM)29.68 "Hg (May 24, 2:00 AM)
Average64 °F62%29.93 "Hg
* Reported May 16 10:00 AM — May 31 10:00 AM, Pécs, Weather by CustomWeather, © 2016

Note: Actual official high and low records may vary slightly from our data, if they occured in-between our weather recording intervals... More about our weather records

Advertising

Pécs Weather History for the Previous 24 Hours

Scroll right to see more
 ConditionsComfort  
Time TempWeatherWind HumidityBarometerVisibility
10:00 AM
Tue, May 31
71 °FPassing clouds.7 mph46%29.89 "Hg47 mi
9:00 AM68 °FPassing clouds.6 mph54%29.90 "Hg47 mi
8:00 AM65 °FPassing clouds.3 mph67%29.89 "Hg47 mi
6:00 AM60 °FPassing clouds.2 mph71%29.88 "Hg47 mi
5:00 AM60 °FSunny.3 mph68%29.87 "Hg43 mi
3:00 AM61 °FClear.2 mph67%29.88 "Hg43 mi
2:00 AM62 °FClear.2 mph65%29.88 "Hg43 mi
1:00 AM64 °FClear.2 mph64%29.87 "Hg43 mi
12:00 AM66 °FClear.5 mph57%29.86 "Hg43 mi
11:00 PM
Mon, May 30
67 °FClear.3 mph55%29.86 "Hg43 mi
10:00 PM69 °FPassing clouds.5 mph54%29.84 "Hg43 mi
9:00 PM71 °FPassing clouds.3 mph58%29.81 "Hg43 mi
8:00 PM74 °FScattered clouds.5 mph51%29.80 "Hg43 mi
6:00 PM76 °FScattered clouds.5 mph50%29.79 "Hg43 mi
5:00 PM77 °FPartly sunny.2 mph43%29.79 "Hg43 mi
4:00 PM79 °FScattered clouds.2 mph41%29.78 "Hg43 mi
3:00 PM75 °FScattered clouds.1 mph54%29.80 "Hg37 mi
2:00 PM69 °FThunderstorms. Partly sunny.3 mph73%29.82 "Hg25 mi
Weather by CustomWeather, © 2016

See weather overviewHow to use our weather pages